Showing default

YAOGAN-39 04B, 58143

Orbit data source: Space-Track

YAOGAN-39 04B, 58143 is a payload satellite owned by PLA GAD (CN) in LEO that was launched on Mon, 23 Oct 2023 UTC via a CHANG ZHENG 2D launch vehicle from the Xichang Space Center, China (XSC). Payloads include a variety of satellites, spacecraft, and rockets equipped with specific instruments for various scientific and technological missions. These include communications satellites like Starlink; space stations such as the ISS; scientific satellites like the Hubble; Earth observation satellites from companies like Planet Labs, Umbra, and HawkEye 360; GPS; miniature CubeSats for education and research; and military/defense satellites.

Loading next visibility...
YAOGAN-39 04B details
Identifier
58143, 2023-163C
Orbit
LEO
Last TLE update14 hours ago
Origin
Flag of CNPLA GAD (CN / PRC)
ManufacturerSAST
MissionOperational Defense Sigint
Bus & MotorUnknown
Mass~300 kg wet, ~300 kg dry
Launch date (UTC)
2023-10-23 (1 year ago)
Launch vehicle
CHANG ZHENG 2D
Launch site
Xichang Space Center, China (XSC)
Object type
Payload
Rocket body
Debris
Shape & HBRBox + 2 Pan, 5 m
Radar Cross Section11.063 m², Large (>1 m²)

Expand to show TLE details & history

TLE from 14 hours ago
0 YAOGAN-39 04B
1 58143U 23163C   24348.07999279  .00013494  00000-0  55890-3 0  9990
2 58143  34.9950 210.6029 0010982 213.3847 146.6176 15.23050096 63495
Epoch: 2024-12-13T01:55Z
Definitive object data (Epoch: 2024-12-13T01:55:11.377Z)
Latitude0.00001°
Longitude99.5544°
Altitude501.859 km
Speed7.612 km/s
True Right ascension14h 02m 24s
True Declination0° 00' 00"
Sunlit
Object was in daylight at TLE epoch
Visualization TLE readout
Latitude-12.16936°
Longitude78.02992°
Altitude501.634 km
Speed7.613 km/s
Apparent Right ascension09h 40m 30s
Apparent Declination-58° 39' 25"
Sunlit
Object is in daylight
Visualization observer readout
Local Sidereal Time14:29:55
Azimuth213.243° SW
Elevation-25.282°
Doppler factor1
Orbital elements
Apogee altitude507.451 km
Perigee altitude492.344 km
Semi-major axis6,878.035 km
Eccentricity0.0010982
Inclination34.995°
RAAN210.6029°
Arg. of periapsis213.3847°
True anomaly146.68676°
Mean anomaly146.6176°
Eccentric anomaly146.65219°
Mean motion3.80493 °/min
BSTAR0.0005589
Orbital period94.61 mins
Loading maneuver chart data...
Loading historical data...
Loading historical data...
Loading historical data...
Loading historical data...
Loading historical data...
Loading historical data...
Loading historical data...

YAOGAN-39 04B Visibility forecast

Observer location: undefined°, undefined

Span
Click to sort rows by Start time (UTC) header in descending order
Start Az.
Max El. time (UTC)
Max El. Az.
Max El.
End time (UTC)
End Az.
6 mins2024-12-13 19:29:04.537Z221.576° SW2024-12-13 19:32:04.537Z165.955° S24.538°2024-12-13 19:35:04.537Z109.081° ESE
6 mins2024-12-13 21:09:04.537Z241.591° WSW2024-12-13 21:11:04.537Z199.764° SSW31.244°2024-12-13 21:15:04.537Z111.196° ESE
5 mins2024-12-13 22:49:04.537Z238.643° WSW2024-12-13 22:51:04.537Z192.995° SSW24.101°2024-12-13 22:54:04.537Z138.616° SSE
|